Location: Podia
(1.5569°N, 32.3469°E)
Time: 10:51:06
(UTC+00:00)

N. Korean satellite - Pass Details

Date: 16 August 2020
Orbit: 455 x 503 km, 97.2° (Epoch: 22 September)

Event Time Altitude Azimuth Distance (km) Brightness Sun altitude
Rises 02:34:13 0° 29° (NNE) 2,561 10.9 -19.2°
Reaches altitude 10° 02:36:28 10° 41° (NE) 1,689 10.1 -18.6°
Maximum altitude 02:39:38 28° 101° (E) 961 8.7 -17.9°
Drops below altitude 10° 02:42:49 10° 161° (SSE) 1,708 9.4 -17.1°
Sets 02:45:07 0° 173° (S) 2,597 10.2 -16.6°
